| time (UTC) | temp C | wind direction | speed KPH | gust KPH | rain 1hr cm | rain 24hr cm | rain mn cm | humidity % | barometer mb |
| 20260507092554 | 1 | 90 | 0.0 | 0.0 | 0.00 | 0.00 | 0.00 | 95 | 1018.1 |
| 20260507092055 | 1 | 90 | 0.0 | 0.0 | 0.00 | 0.00 | 0.00 | 95 | 1018.1 |
| 20260507091555 | 1 | 90 | 0.0 | 1.6 | 0.00 | 0.00 | 0.00 | 95 | 1018.0 |
| 20260507091053 | 1 | 90 | 0.0 | 1.6 | 0.00 | 0.00 | 0.00 | 95 | 1018.1 |
| 20260507090653 | 1 | 71 | 0.0 | 1.6 | 0.00 | 0.00 | 0.00 | 95 | 1017.9 |
| 20260507085555 | 1 | 42 | 0.0 | 1.6 | 0.00 | 0.00 | 0.00 | 95 | 1018.2 |
| 20260507085053 | 1 | 36 | 0.0 | 1.6 | 0.00 | 0.00 | 0.00 | 95 | 1018.2 |
| 20260507084553 | 1 | 36 | 0.0 | 1.6 | 0.00 | 0.00 | 0.00 | 95 | 1018.2 |
| 20260507084053 | 2 | 36 | 0.0 | 1.6 | 0.00 | 0.00 | 0.00 | 95 | 1018.2 |
| 20260507083552 | 2 | 36 | 0.0 | 1.6 | 0.00 | 0.00 | 0.00 | 95 | 1018.3 |
| 20260507083052 | 2 | 360 | 0.0 | 0.0 | 0.00 | 0.00 | 0.00 | 95 | 1018.4 |
| 20260507082553 | 2 | 360 | 0.0 | 0.0 | 0.00 | 0.00 | 0.00 | 95 | 1018.4 |
| 20260507082050 | 2 | 360 | 0.0 | 0.0 | 0.00 | 0.00 | 0.00 | 95 | 1018.4 |
| 20260507081550 | 2 | 360 | 0.0 | 0.0 | 0.00 | 0.00 | 0.00 | 95 | 1018.5 |
| 20260507081050 | 2 | 360 | 0.0 | 0.0 | 0.00 | 0.00 | 0.00 | 95 | 1018.5 |
| 20260507080649 | 2 | 360 | 0.0 | 0.0 | 0.00 | 0.00 | 0.00 | 95 | 1018.5 |
| 20260507080049 | 2 | 360 | 0.0 | 0.0 | 0.00 | 0.00 | 0.00 | 95 | 1018.4 |
| 20260507075552 | 2 | 360 | 0.0 | 0.0 | 0.00 | 0.00 | 0.00 | 95 | 1018.5 |
| 20260507075049 | 2 | 360 | 0.0 | 0.0 | 0.00 | 0.00 | 0.00 | 95 | 1018.4 |
| 20260507074554 | 2 | 360 | 0.0 | 0.0 | 0.00 | 0.00 | 0.00 | 95 | 1018.4 |
| 20260507074048 | 2 | 360 | 0.0 | 0.0 | 0.00 | 0.00 | 0.00 | 95 | 1018.2 |
| 20260507073547 | 2 | 360 | 0.0 | 0.0 | 0.00 | 0.00 | 0.00 | 95 | 1018.3 |
| 20260507073046 | 2 | 360 | 0.0 | 0.0 | 0.00 | 0.00 | 0.00 | 95 | 1018.2 |
| 20260507072547 | 2 | 360 | 0.0 | 0.0 | 0.00 | 0.00 | 0.00 | 95 | 1018.3 |
| 20260507072045 | 2 | 360 | 0.0 | 0.0 | 0.00 | 0.00 | 0.00 | 95 | 1018.3 |
| 20260507071546 | 2 | 360 | 0.0 | 0.0 | 0.00 | 0.00 | 0.00 | 95 | 1018.3 |
| 20260507071047 | 2 | 360 | 0.0 | 0.0 | 0.00 | 0.00 | 0.00 | 95 | 1018.1 |
| 20260507070647 | 2 | 360 | 0.0 | 0.0 | 0.00 | 0.00 | 0.00 | 95 | 1018.2 |
| 20260507070050 | 2 | 360 | 0.0 | 0.0 | 0.00 | 0.00 | 0.00 | 95 | 1018.1 |
| 20260507065547 | 2 | 360 | 0.0 | 0.0 | 0.00 | 0.00 | 0.00 | 95 | 1018.0 |
| 20260507065046 | 2 | 360 | 0.0 | 0.0 | 0.00 | 0.00 | 0.00 | 95 | 1018.4 |
| 20260507064603 | 2 | 360 | 0.0 | 0.0 | 0.00 | 0.00 | 0.00 | 95 | 1018.3 |
| 20260507064045 | 2 | 360 | 0.0 | 0.0 | 0.00 | 0.00 | 0.00 | 95 | 1018.4 |
| 20260507063543 | 2 | 360 | 0.0 | 0.0 | 0.00 | 0.00 | 0.00 | 95 | 1018.4 |
| 20260507063047 | 2 | 360 | 0.0 | 0.0 | 0.00 | 0.00 | 0.00 | 95 | 1018.4 |
| 20260507062544 | 2 | 360 | 0.0 | 0.0 | 0.00 | 0.00 | 0.00 | 95 | 1018.4 |
| 20260507062042 | 2 | 360 | 0.0 | 1.6 | 0.00 | 0.00 | 0.00 | 95 | 1018.5 |
| 20260507061542 | 3 | 360 | 0.0 | 1.6 | 0.00 | 0.00 | 0.00 | 95 | 1018.4 |
| 20260507061041 | 3 | 360 | 0.0 | 0.0 | 0.00 | 0.00 | 0.00 | 95 | 1018.4 |
| 20260507060641 | 3 | 360 | 0.0 | 0.0 | 0.00 | 0.00 | 0.00 | 95 | 1018.4 |
| 20260507060049 | 3 | 360 | 0.0 | 0.0 | 0.00 | 0.00 | 0.00 | 95 | 1018.3 |
| 20260507055546 | 3 | 360 | 0.0 | 0.0 | 0.00 | 0.00 | 0.00 | 95 | 1018.2 |
| 20260507055046 | 3 | 360 | 0.0 | 0.0 | 0.00 | 0.00 | 0.00 | 95 | 1018.5 |
| 20260507054546 | 3 | 360 | 0.0 | 0.0 | 0.00 | 0.00 | 0.00 | 95 | 1018.3 |
| 20260507054045 | 3 | 360 | 0.0 | 0.0 | 0.00 | 0.00 | 0.00 | 95 | 1018.3 |
| 20260507053544 | 3 | 360 | 0.0 | 0.0 | 0.00 | 0.00 | 0.00 | 94 | 1018.3 |
| 20260507053044 | 3 | 360 | 0.0 | 0.0 | 0.00 | 0.00 | 0.00 | 94 | 1018.4 |
| 20260507052545 | 3 | 360 | 0.0 | 0.0 | 0.00 | 0.00 | 0.00 | 94 | 1018.2 |
| 20260507052041 | 3 | 360 | 0.0 | 0.0 | 0.00 | 0.00 | 0.00 | 94 | 1018.3 |
| 20260507051540 | 3 | 355 | 0.0 | 0.0 | 0.00 | 0.00 | 0.00 | 94 | 1018.2 |
| 20260507051040 | 3 | 355 | 0.0 | 0.0 | 0.00 | 0.00 | 0.00 | 94 | 1018.1 |
| 20260507050503 | 3 | 355 | 0.0 | 0.0 | 0.00 | 0.00 | 0.00 | 94 | 1018.1 |
| 20260507050007 | 3 | 355 | 0.0 | 0.0 | 0.00 | 0.05 | 0.00 | 94 | 1018.2 |
| 20260507045501 | 4 | 355 | 0.0 | 0.0 | 0.00 | 0.05 | 0.00 | 94 | 1018.2 |
| 20260507045001 | 4 | 355 | 0.0 | 0.0 | 0.00 | 0.05 | 0.00 | 94 | 1018.3 |
| 20260507044500 | 4 | 355 | 0.0 | 0.0 | 0.00 | 0.05 | 0.00 | 94 | 1018.3 |
| 20260507044100 | 4 | 355 | 0.0 | 0.0 | 0.00 | 0.05 | 0.00 | 94 | 1018.2 |
| 20260507043558 | 4 | 355 | 0.0 | 0.0 | 0.00 | 0.05 | 0.00 | 94 | 1018.2 |
| 20260507043102 | 4 | 355 | 0.0 | 0.0 | 0.00 | 0.05 | 0.00 | 94 | 1018.2 |
| 20260507042557 | 4 | 355 | 0.0 | 0.0 | 0.00 | 0.05 | 0.00 | 94 | 1018.1 |
| 20260507042056 | 5 | 355 | 0.0 | 0.0 | 0.00 | 0.05 | 0.00 | 94 | 1017.9 |
| 20260507041605 | 5 | 355 | 0.0 | 0.0 | 0.00 | 0.05 | 0.00 | 94 | 1018.1 |
| 20260507041055 | 5 | 355 | 0.0 | 0.0 | 0.00 | 0.05 | 0.00 | 94 | 1018.1 |
| 20260507040655 | 5 | 355 | 0.0 | 0.0 | 0.00 | 0.05 | 0.00 | 94 | 1018.1 |
| 20260507040059 | 5 | 355 | 0.0 | 0.0 | 0.00 | 0.05 | 0.00 | 94 | 1017.9 |
| 20260507035557 | 5 | 355 | 0.0 | 0.0 | 0.00 | 0.05 | 0.00 | 94 | 1018.0 |
| 20260507035056 | 5 | 355 | 0.0 | 0.0 | 0.00 | 0.05 | 0.00 | 94 | 1017.9 |
| 20260507034605 | 5 | 355 | 0.0 | 0.0 | 0.00 | 0.05 | 0.00 | 94 | 1017.9 |
| 20260507034055 | 5 | 355 | 0.0 | 0.0 | 0.00 | 0.05 | 0.00 | 93 | 1017.9 |
| 20260507033554 | 5 | 355 | 0.0 | 0.0 | 0.00 | 0.05 | 0.00 | 94 | 1017.9 |
| 20260507033055 | 5 | 355 | 0.0 | 0.0 | 0.00 | 0.05 | 0.00 | 93 | 1017.9 |
| 20260507032554 | 6 | 355 | 0.0 | 0.0 | 0.00 | 0.05 | 0.00 | 93 | 1017.9 |
| 20260507032053 | 6 | 355 | 0.0 | 0.0 | 0.00 | 0.05 | 0.00 | 93 | 1017.9 |
| 20260507031555 | 6 | 355 | 0.0 | 0.0 | 0.00 | 0.05 | 0.00 | 93 | 1017.9 |
| 20260507031057 | 6 | 355 | 0.0 | 0.0 | 0.00 | 0.05 | 0.00 | 93 | 1017.9 |
| 20260507030654 | 6 | 355 | 0.0 | 1.6 | 0.00 | 0.05 | 0.00 | 93 | 1017.9 |
| 20260507030057 | 6 | 355 | 0.0 | 0.0 | 0.00 | 0.05 | 0.00 | 92 | 1018.0 |
| 20260507025550 | 6 | 355 | 0.0 | 0.0 | 0.00 | 0.15 | 0.00 | 92 | 1017.9 |
| 20260507025049 | 6 | 355 | 0.0 | 0.0 | 0.00 | 0.15 | 0.00 | 92 | 1017.9 |
| 20260507024549 | 6 | 355 | 0.0 | 1.6 | 0.00 | 0.15 | 0.00 | 92 | 1017.8 |
| 20260507024049 | 6 | 355 | 0.0 | 1.6 | 0.00 | 0.15 | 0.00 | 92 | 1017.8 |
| 20260507023548 | 7 | 355 | 0.0 | 0.0 | 0.00 | 0.15 | 0.00 | 91 | 1017.7 |
| 20260507023103 | 7 | 355 | 0.0 | 0.0 | 0.00 | 0.15 | 0.00 | 91 | 1017.6 |
| 20260507022548 | 7 | 355 | 0.0 | 0.0 | 0.00 | 0.15 | 0.00 | 90 | 1017.6 |
| 20260507022049 | 7 | 355 | 0.0 | 0.0 | 0.00 | 0.15 | 0.00 | 90 | 1017.7 |
| 20260507021552 | 7 | 355 | 0.0 | 0.0 | 0.00 | 0.15 | 0.00 | 89 | 1017.6 |
| 20260507021049 | 8 | 355 | 0.0 | 0.0 | 0.00 | 0.15 | 0.00 | 89 | 1017.4 |
| 20260507020649 | 8 | 355 | 0.0 | 0.0 | 0.00 | 0.15 | 0.00 | 88 | 1017.4 |
| 20260507020047 | 8 | 355 | 0.0 | 0.0 | 0.00 | 0.15 | 0.00 | 88 | 1017.3 |
| 20260507015546 | 8 | 355 | 0.0 | 0.0 | 0.00 | 0.38 | 0.00 | 87 | 1017.1 |
| 20260507015047 | 8 | 355 | 0.0 | 0.0 | 0.00 | 0.38 | 0.00 | 87 | 1016.9 |
| 20260507014558 | 8 | 355 | 0.0 | 0.0 | 0.00 | 0.38 | 0.00 | 86 | 1016.9 |
| 20260507014047 | 8 | 355 | 0.0 | 0.0 | 0.00 | 0.38 | 0.00 | 85 | 1016.9 |
| 20260507013545 | 8 | 355 | 0.0 | 0.0 | 0.00 | 0.38 | 0.00 | 85 | 1017.0 |
| 20260507013103 | 9 | 355 | 0.0 | 0.0 | 0.00 | 0.38 | 0.00 | 84 | 1016.8 |
| 20260507012545 | 9 | 355 | 0.0 | 0.0 | 0.00 | 0.38 | 0.00 | 83 | 1016.9 |
| 20260507012045 | 9 | 355 | 0.0 | 0.0 | 0.00 | 0.38 | 0.00 | 82 | 1016.7 |
| 20260507011546 | 10 | 355 | 0.0 | 0.0 | 0.00 | 0.38 | 0.00 | 81 | 1016.6 |
| 20260507011045 | 10 | 355 | 0.0 | 0.0 | 0.00 | 0.38 | 0.00 | 79 | 1016.7 |
| 20260507010645 | 10 | 355 | 0.0 | 0.0 | 0.00 | 0.38 | 0.00 | 79 | 1016.8 |
| 20260507010044 | 10 | 355 | 0.0 | 1.6 | 0.00 | 0.38 | 0.00 | 75 | 1016.7 |
| 20260507005543 | 10 | 355 | 0.0 | 1.6 | 0.00 | 0.56 | 0.00 | 71 | 1016.8 |
| 20260507005044 | 11 | 355 | 0.0 | 3.2 | 0.00 | 0.56 | 0.00 | 69 | 1016.6 |
| 20260507004543 | 11 | 360 | 0.0 | 3.2 | 0.00 | 0.56 | 0.00 | 67 | 1016.4 |
| 20260507004044 | 11 | 341 | 0.0 | 3.2 | 0.00 | 0.56 | 0.00 | 65 | 1016.4 |
| 20260507003543 | 12 | 344 | 0.0 | 6.4 | 0.00 | 0.56 | 0.00 | 65 | 1016.4 |
| 20260507003042 | 12 | 355 | 1.6 | 6.4 | 0.00 | 0.56 | 0.00 | 63 | 1016.4 |
| 20260507002542 | 12 | 34 | 1.6 | 9.7 | 0.00 | 0.56 | 0.00 | 63 | 1016.4 |
| 20260507002042 | 12 | 348 | 4.8 | 9.7 | 0.00 | 0.56 | 0.00 | 61 | 1016.3 |
| 20260507001555 | 13 | 344 | 1.6 | 12.9 | 0.00 | 0.56 | 0.00 | 61 | 1016.1 |
| 20260507001045 | 13 | 331 | 3.2 | 12.9 | 0.00 | 0.56 | 0.00 | 57 | 1016.0 |
| 20260507000641 | 13 | 9 | 4.8 | 12.9 | 0.00 | 0.56 | 0.00 | 57 | 1016.0 |
| 20260507000042 | 13 | 351 | 3.2 | 16.1 | 0.00 | 0.56 | 0.00 | 58 | 1015.9 |
| 20260506235544 | 13 | 292 | 4.8 | 16.1 | 0.00 | 0.64 | 0.00 | 55 | 1015.7 |
| 20260506235041 | 13 | 355 | 3.2 | 19.3 | 0.00 | 0.64 | 0.00 | 58 | 1015.7 |
| 20260506234541 | 14 | 294 | 4.8 | 19.3 | 0.00 | 0.64 | 0.00 | 56 | 1015.7 |
| 20260506234043 | 14 | 9 | 6.4 | 19.3 | 0.00 | 0.64 | 0.00 | 57 | 1015.7 |
| 20260506233542 | 14 | 329 | 4.8 | 22.5 | 0.00 | 0.64 | 0.00 | 54 | 1015.7 |
| 20260506233045 | 14 | 338 | 4.8 | 22.5 | 0.00 | 0.64 | 0.00 | 53 | 1015.7 |
| 20260506232543 | 14 | 26 | 1.6 | 16.1 | 0.00 | 0.64 | 0.00 | 57 | 1015.6 |
| 20260506232039 | 14 | 5 | 3.2 | 16.1 | 0.00 | 0.64 | 0.00 | 58 | 1015.7 |
| 20260506231544 | 14 | 18 | 4.8 | 22.5 | 0.00 | 0.64 | 0.00 | 55 | 1015.7 |
| 20260506231039 | 14 | 15 | 6.4 | 22.5 | 0.00 | 0.64 | 0.00 | 54 | 1015.8 |
| 20260506230638 | 14 | 341 | 6.4 | 16.1 | 0.00 | 0.64 | 0.00 | 53 | 1016.0 |
| 20260506230051 | 15 | 300 | 8.0 | 16.1 | 0.00 | 0.64 | 0.00 | 54 | 1016.0 |
| 20260506225553 | 15 | 284 | 3.2 | 16.1 | 0.00 | 0.71 | 0.00 | 55 | 1016.0 |
| 20260506225051 | 15 | 19 | 6.4 | 22.5 | 0.00 | 0.71 | 0.00 | 54 | 1016.0 |
| 20260506224551 | 15 | 299 | 4.8 | 22.5 | 0.00 | 0.71 | 0.00 | 55 | 1015.9 |
| 20260506224051 | 15 | 11 | 8.0 | 17.7 | 0.00 | 0.71 | 0.00 | 54 | 1015.8 |
| 20260506223550 | 15 | 317 | 3.2 | 14.5 | 0.00 | 0.71 | 0.00 | 53 | 1015.8 |
| 20260506223104 | 15 | 302 | 6.4 | 16.1 | 0.00 | 0.71 | 0.00 | 53 | 1016.0 |
| 20260506222550 | 15 | 318 | 6.4 | 16.1 | 0.00 | 0.71 | 0.00 | 53 | 1016.0 |
| 20260506222052 | 15 | 5 | 3.2 | 14.5 | 0.00 | 0.71 | 0.00 | 53 | 1015.8 |
| 20260506221549 | 15 | 118 | 4.8 | 14.5 | 0.00 | 0.71 | 0.00 | 52 | 1016.0 |
| 20260506221049 | 15 | 355 | 6.4 | 14.5 | 0.00 | 0.71 | 0.00 | 55 | 1015.9 |
| 20260506220650 | 15 | 355 | 4.8 | 20.9 | 0.00 | 0.71 | 0.00 | 55 | 1015.9 |
| 20260506220051 | 15 | 346 | 6.4 | 20.9 | 0.00 | 0.71 | 0.00 | 54 | 1015.9 |
| 20260506215552 | 14 | 345 | 4.8 | 16.1 | 0.00 | 0.71 | 0.00 | 56 | 1015.8 |
| 20260506215051 | 15 | 348 | 4.8 | 14.5 | 0.00 | 0.71 | 0.00 | 54 | 1016.0 |
| 20260506214555 | 15 | 299 | 6.4 | 16.1 | 0.00 | 0.71 | 0.00 | 56 | 1016.0 |
| 20260506214052 | 14 | 292 | 4.8 | 19.3 | 0.00 | 0.71 | 0.00 | 59 | 1016.2 |
| 20260506213550 | 15 | 19 | 8.0 | 19.3 | 0.00 | 0.71 | 0.00 | 52 | 1016.3 |
| 20260506213049 | 15 | 339 | 4.8 | 12.9 | 0.00 | 0.71 | 0.00 | 56 | 1016.3 |
| 20260506212548 | 15 | 355 | 3.2 | 14.5 | 0.00 | 0.71 | 0.00 | 56 | 1016.4 |
| 20260506212049 | 15 | 341 | 3.2 | 19.3 | 0.00 | 0.71 | 0.00 | 59 | 1016.3 |
| 20260506211547 | 15 | 315 | 9.7 | 19.3 | 0.00 | 0.71 | 0.00 | 58 | 1016.4 |
| 20260506211047 | 15 | 326 | 4.8 | 17.7 | 0.00 | 0.71 | 0.00 | 57 | 1016.4 |
| 20260506210648 | 15 | 313 | 4.8 | 16.1 | 0.00 | 0.71 | 0.00 | 55 | 1016.4 |
| 20260506210050 | 14 | 42 | 3.2 | 16.1 | 0.00 | 0.71 | 0.00 | 57 | 1016.6 |
| 20260506205550 | 14 | 279 | 6.4 | 14.5 | 0.00 | 0.71 | 0.00 | 58 | 1016.7 |
| 20260506205049 | 13 | 288 | 4.8 | 14.5 | 0.00 | 0.71 | 0.00 | 60 | 1016.7 |
| 20260506204549 | 14 | 315 | 4.8 | 14.5 | 0.00 | 0.71 | 0.00 | 58 | 1016.8 |
| 20260506204048 | 15 | 252 | 1.6 | 16.1 | 0.00 | 0.71 | 0.00 | 57 | 1016.8 |
| 20260506203546 | 15 | 15 | 6.4 | 16.1 | 0.00 | 0.71 | 0.00 | 60 | 1016.8 |
| 20260506203048 | 15 | 311 | 6.4 | 14.5 | 0.00 | 0.71 | 0.00 | 60 | 1017.0 |
| 20260506202548 | 13 | 328 | 3.2 | 12.9 | 0.00 | 0.71 | 0.00 | 63 | 1017.0 |
| 20260506202045 | 13 | 306 | 3.2 | 17.7 | 0.00 | 0.71 | 0.00 | 61 | 1017.0 |
| 20260506201545 | 13 | 27 | 6.4 | 17.7 | 0.00 | 0.71 | 0.00 | 60 | 1017.1 |
| 20260506201047 | 13 | 328 | 4.8 | 19.3 | 0.00 | 0.71 | 0.00 | 61 | 1017.1 |
| 20260506200644 | 14 | 307 | 3.2 | 19.3 | 0.00 | 0.71 | 0.00 | 56 | 1017.2 |
| 20260506200117 | 15 | 302 | 3.2 | 9.7 | 0.00 | 0.71 | 0.00 | 64 | 1017.2 |
| 20260506195544 | 14 | 337 | 3.2 | 12.9 | 0.00 | 0.71 | 0.00 | 65 | 1017.2 |
| 20260506195046 | 14 | 5 | 4.8 | 16.1 | 0.00 | 0.71 | 0.00 | 61 | 1017.3 |
| 20260506194544 | 13 | 292 | 8.0 | 16.1 | 0.00 | 0.71 | 0.00 | 62 | 1017.4 |
| 20260506194043 | 13 | 327 | 6.4 | 16.1 | 0.00 | 0.71 | 0.00 | 65 | 1017.4 |
| 20260506193545 | 13 | 355 | 3.2 | 19.3 | 0.00 | 0.71 | 0.00 | 68 | 1017.4 |
| 20260506193045 | 13 | 341 | 6.4 | 19.3 | 0.00 | 0.71 | 0.00 | 64 | 1017.4 |
| 20260506192542 | 13 | 345 | 4.8 | 19.3 | 0.00 | 0.71 | 0.00 | 65 | 1017.4 |
| 20260506192042 | 13 | 309 | 8.0 | 19.3 | 0.00 | 0.71 | 0.00 | 64 | 1017.4 |
| 20260506191546 | 13 | 27 | 4.8 | 17.7 | 0.00 | 0.71 | 0.00 | 65 | 1017.4 |
| 20260506191041 | 13 | 309 | 8.0 | 16.1 | 0.00 | 0.71 | 0.00 | 66 | 1017.5 |
| 20260506190642 | 13 | 308 | 4.8 | 14.5 | 0.00 | 0.71 | 0.00 | 64 | 1017.5 |
| 20260506190042 | 13 | 300 | 4.8 | 14.5 | 0.00 | 0.71 | 0.00 | 61 | 1017.4 |
| 20260506185546 | 13 | 326 | 3.2 | 14.5 | 0.00 | 0.71 | 0.00 | 65 | 1017.5 |
| 20260506185044 | 13 | 340 | 1.6 | 11.3 | 0.00 | 0.71 | 0.00 | 69 | 1017.6 |
| 20260506184543 | 13 | 296 | 6.4 | 11.3 | 0.00 | 0.71 | 0.00 | 64 | 1017.6 |
| 20260506184041 | 13 | 338 | 1.6 | 19.3 | 0.00 | 0.71 | 0.00 | 67 | 1017.6 |
| 20260506183541 | 13 | 310 | 9.7 | 19.3 | 0.00 | 0.71 | 0.00 | 63 | 1017.5 |
| 20260506183041 | 14 | 292 | 6.4 | 16.1 | 0.00 | 0.71 | 0.00 | 65 | 1017.5 |
| 20260506182540 | 14 | 275 | 4.8 | 14.5 | 0.00 | 0.71 | 0.00 | 67 | 1017.4 |
| 20260506182040 | 14 | 333 | 4.8 | 16.1 | 0.00 | 0.71 | 0.00 | 68 | 1017.2 |
| 20260506181542 | 13 | 58 | 6.4 | 16.1 | 0.00 | 0.71 | 0.00 | 62 | 1017.4 |
| 20260506181039 | 13 | 329 | 4.8 | 14.5 | 0.00 | 0.71 | 0.00 | 68 | 1017.5 |
| 20260506180515 | 13 | 310 | 4.8 | 14.5 | 0.00 | 0.71 | 0.00 | 66 | 1017.4 |
| 20260506180008 | 14 | 5 | 4.8 | 12.9 | 0.00 | 0.71 | 0.00 | 65 | 1017.3 |
| 20260506175511 | 13 | 299 | 1.6 | 9.7 | 0.00 | 0.71 | 0.00 | 65 | 1017.2 |
| 20260506175008 | 13 | 319 | 3.2 | 14.5 | 0.00 | 0.71 | 0.00 | 74 | 1017.5 |
| 20260506174505 | 13 | 297 | 6.4 | 14.5 | 0.00 | 0.71 | 0.00 | 69 | 1017.5 |
| 20260506174006 | 12 | 355 | 4.8 | 12.9 | 0.00 | 0.71 | 0.00 | 66 | 1017.6 |
| 20260506173503 | 13 | 328 | 4.8 | 12.9 | 0.00 | 0.71 | 0.00 | 66 | 1017.7 |
| 20260506173002 | 13 | 317 | 4.8 | 16.1 | 0.00 | 0.71 | 0.00 | 66 | 1017.8 |
| 20260506172600 | 12 | 321 | 4.8 | 16.1 | 0.00 | 0.71 | 0.00 | 68 | 1017.9 |
| 20260506172058 | 12 | 309 | 4.8 | 14.5 | 0.00 | 0.71 | 0.00 | 67 | 1018.0 |
| 20260506171602 | 12 | 347 | 3.2 | 9.7 | 0.00 | 0.71 | 0.00 | 70 | 1017.9 |
| 20260506171056 | 12 | 336 | 4.8 | 9.7 | 0.00 | 0.71 | 0.00 | 66 | 1017.9 |
| 20260506170655 | 12 | 329 | 1.6 | 9.7 | 0.00 | 0.71 | 0.00 | 70 | 1018.2 |
| 20260506170057 | 12 | 349 | 0.0 | 14.5 | 0.00 | 0.71 | 0.00 | 70 | 1018.1 |
| 20260506165555 | 11 | 36 | 4.8 | 14.5 | 0.00 | 0.71 | 0.00 | 67 | 1017.9 |
| 20260506165056 | 11 | 289 | 4.8 | 12.9 | 0.00 | 0.71 | 0.00 | 69 | 1017.8 |
| 20260506164555 | 11 | 337 | 3.2 | 16.1 | 0.00 | 0.71 | 0.00 | 68 | 1017.8 |
| 20260506164053 | 11 | 67 | 3.2 | 16.1 | 0.00 | 0.71 | 0.00 | 69 | 1017.9 |
| 20260506163553 | 11 | 109 | 4.8 | 12.9 | 0.00 | 0.71 | 0.00 | 71 | 1017.7 |
| 20260506163053 | 11 | 351 | 3.2 | 11.3 | 0.00 | 0.71 | 0.00 | 74 | 1017.5 |
| 20260506162555 | 11 | 339 | 1.6 | 8.0 | 0.00 | 0.71 | 0.00 | 72 | 1017.4 |
| 20260506162053 | 11 | 5 | 3.2 | 12.9 | 0.00 | 0.71 | 0.00 | 73 | 1017.3 |
| 20260506161557 | 11 | 309 | 4.8 | 12.9 | 0.00 | 0.71 | 0.00 | 72 | 1017.4 |
| 20260506161051 | 11 | 342 | 4.8 | 12.9 | 0.00 | 0.71 | 0.00 | 72 | 1017.4 |
| 20260506160650 | 11 | 18 | 4.8 | 14.5 | 0.00 | 0.71 | 0.00 | 73 | 1017.3 |
| 20260506160106 | 11 | 319 | 4.8 | 14.5 | 0.00 | 0.71 | 0.00 | 73 | 1017.6 |
| 20260506155554 | 11 | 341 | 4.8 | 14.5 | 0.00 | 0.71 | 0.00 | 72 | 1017.5 |
| 20260506155054 | 11 | 5 | 6.4 | 17.7 | 0.00 | 0.71 | 0.00 | 74 | 1017.4 |
| 20260506154552 | 11 | 342 | 3.2 | 17.7 | 0.00 | 0.71 | 0.00 | 76 | 1017.3 |
| 20260506154052 | 10 | 278 | 4.8 | 20.9 | 0.00 | 0.71 | 0.00 | 75 | 1017.2 |
| 20260506153552 | 10 | 40 | 6.4 | 20.9 | 0.00 | 0.71 | 0.00 | 75 | 1017.3 |
| 20260506153050 | 10 | 299 | 3.2 | 19.3 | 0.00 | 0.71 | 0.00 | 76 | 1017.4 |
| 20260506152550 | 11 | 338 | 1.6 | 19.3 | 0.00 | 0.71 | 0.00 | 77 | 1017.2 |
| 20260506152050 | 10 | 325 | 6.4 | 22.5 | 0.00 | 0.71 | 0.00 | 76 | 1017.0 |
| 20260506151549 | 11 | 297 | 6.4 | 22.5 | 0.00 | 0.71 | 0.00 | 80 | 1017.1 |
| 20260506151049 | 10 | 337 | 3.2 | 16.1 | 0.00 | 0.71 | 0.00 | 81 | 1017.0 |
| 20260506150649 | 10 | 312 | 4.8 | 20.9 | 0.00 | 0.71 | 0.00 | 79 | 1016.9 |
| 20260506150056 | 11 | 338 | 6.4 | 20.9 | 0.00 | 0.71 | 0.00 | 79 | 1016.8 |
| 20260506145555 | 11 | 334 | 9.7 | 20.9 | 0.00 | 0.71 | 0.00 | 80 | 1016.7 |
| 20260506145051 | 10 | 355 | 4.8 | 12.9 | 0.00 | 0.71 | 0.00 | 85 | 1016.7 |
| 20260506144553 | 10 | 290 | 4.8 | 12.9 | 0.00 | 0.71 | 0.00 | 85 | 1016.6 |
| 20260506144049 | 9 | 311 | 4.8 | 14.5 | 0.00 | 0.71 | 0.00 | 84 | 1016.7 |
| 20260506143551 | 9 | 301 | 4.8 | 20.9 | 0.00 | 0.71 | 0.00 | 86 | 1016.7 |
| 20260506143048 | 9 | 306 | 8.0 | 20.9 | 0.00 | 0.71 | 0.00 | 85 | 1016.7 |
| 20260506142548 | 9 | 355 | 6.4 | 16.1 | 0.00 | 0.71 | 0.00 | 87 | 1016.5 |
| 20260506142047 | 9 | 327 | 6.4 | 16.1 | 0.00 | 0.71 | 0.00 | 87 | 1016.5 |
| 20260506141546 | 9 | 31 | 6.4 | 16.1 | 0.00 | 0.71 | 0.00 | 90 | 1016.5 |
| 20260506141044 | 8 | 304 | 4.8 | 14.5 | 0.00 | 0.71 | 0.00 | 92 | 1016.5 |
| 20260506140643 | 8 | 297 | 3.2 | 12.9 | 0.00 | 0.71 | 0.00 | 92 | 1016.5 |
| 20260506140052 | 8 | 310 | 3.2 | 9.7 | 0.00 | 0.71 | 0.00 | 93 | 1016.6 |
| 20260506135550 | 7 | 316 | 3.2 | 9.7 | 0.00 | 0.71 | 0.00 | 93 | 1016.7 |
| 20260506135049 | 7 | 332 | 3.2 | 9.7 | 0.00 | 0.71 | 0.00 | 93 | 1016.8 |
| 20260506134612 | 7 | 355 | 1.6 | 8.0 | 0.00 | 0.71 | 0.00 | 94 | 1017.0 |
| 20260506134048 | 7 | 325 | 1.6 | 8.0 | 0.00 | 0.71 | 0.00 | 94 | 1017.1 |
| 20260506133545 | 7 | 355 | 3.2 | 6.4 | 0.00 | 0.71 | 0.00 | 94 | 1016.9 |
| 20260506133043 | 7 | 355 | 3.2 | 9.7 | 0.00 | 0.71 | 0.00 | 94 | 1016.8 |
| 20260506132542 | 7 | 311 | 3.2 | 6.4 | 0.00 | 0.71 | 0.00 | 94 | 1016.7 |
| 20260506132042 | 7 | 284 | 1.6 | 6.4 | 0.00 | 0.71 | 0.00 | 94 | 1016.8 |
| 20260506131600 | 7 | 326 | 1.6 | 6.4 | 0.00 | 0.71 | 0.00 | 94 | 1016.8 |
| 20260506131041 | 7 | 297 | 1.6 | 4.8 | 0.00 | 0.71 | 0.00 | 94 | 1016.9 |
| 20260506130641 | 7 | 331 | 1.6 | 9.7 | 0.00 | 0.71 | 0.00 | 94 | 1016.9 |
| 20260506130046 | 7 | 318 | 3.2 | 9.7 | 0.00 | 0.71 | 0.00 | 95 | 1016.9 |
| 20260506125544 | 7 | 311 | 1.6 | 11.3 | 0.00 | 0.71 | 0.00 | 95 | 1016.9 |
| 20260506125043 | 7 | 5 | 3.2 | 11.3 | 0.00 | 0.71 | 0.00 | 95 | 1017.0 |
| 20260506124543 | 6 | 343 | 1.6 | 9.7 | 0.00 | 0.71 | 0.00 | 95 | 1016.6 |
| 20260506124043 | 6 | 336 | 3.2 | 14.5 | 0.00 | 0.71 | 0.00 | 95 | 1016.9 |
| 20260506123541 | 6 | 286 | 3.2 | 14.5 | 0.00 | 0.71 | 0.00 | 95 | 1016.8 |
| 20260506123045 | 6 | 317 | 4.8 | 14.5 | 0.00 | 0.71 | 0.00 | 95 | 1016.8 |
| 20260506122540 | 6 | 298 | 3.2 | 12.9 | 0.00 | 0.71 | 0.00 | 95 | 1016.3 |
| 20260506122039 | 6 | 331 | 4.8 | 9.7 | 0.00 | 0.71 | 0.00 | 95 | 1016.1 |
| 20260506121549 | 6 | 341 | 3.2 | 6.4 | 0.00 | 0.71 | 0.00 | 95 | 1016.4 |
| 20260506121048 | 6 | 307 | 1.6 | 8.0 | 0.00 | 0.71 | 0.00 | 95 | 1016.4 |
| 20260506120648 | 6 | 329 | 3.2 | 8.0 | 0.00 | 0.71 | 0.00 | 95 | 1016.6 |
| 20260506120052 | 6 | 332 | 1.6 | 8.0 | 0.00 | 0.71 | 0.00 | 95 | 1016.7 |
| 20260506115552 | 6 | 285 | 3.2 | 9.7 | 0.00 | 0.71 | 0.00 | 95 | 1016.3 |
| 20260506115051 | 6 | 345 | 1.6 | 4.8 | 0.00 | 0.71 | 0.00 | 95 | 1015.8 |
| 20260506114554 | 6 | 346 | 1.6 | 6.4 | 0.00 | 0.71 | 0.00 | 95 | 1016.2 |
| 20260506114052 | 6 | 313 | 3.2 | 6.4 | 0.00 | 0.71 | 0.00 | 95 | 1016.5 |
| 20260506113550 | 6 | 308 | 1.6 | 6.4 | 0.00 | 0.71 | 0.00 | 95 | 1016.3 |
| 20260506113049 | 6 | 334 | 0.0 | 6.4 | 0.00 | 0.71 | 0.00 | 95 | 1016.2 |
| 20260506112547 | 6 | 329 | 1.6 | 4.8 | 0.00 | 0.71 | 0.00 | 95 | 1016.0 |
| 20260506112047 | 6 | 23 | 1.6 | 6.4 | 0.00 | 0.71 | 0.00 | 95 | 1015.5 |
| 20260506111602 | 6 | 303 | 1.6 | 6.4 | 0.00 | 0.71 | 0.00 | 95 | 1015.9 |
| 20260506111047 | 6 | 311 | 1.6 | 6.4 | 0.00 | 0.71 | 0.00 | 95 | 1015.9 |
| 20260506110650 | 6 | 323 | 1.6 | 9.7 | 0.00 | 0.71 | 0.00 | 95 | 1015.8 |
| 20260506110052 | 6 | 327 | 3.2 | 9.7 | 0.00 | 0.71 | 0.00 | 95 | 1015.7 |
| 20260506105550 | 6 | 37 | 1.6 | 3.2 | 0.00 | 0.97 | 0.00 | 95 | 1015.4 |
| 20260506105050 | 6 | 16 | 0.0 | 4.8 | 0.00 | 0.97 | 0.00 | 95 | 1015.6 |
| 20260506104550 | 6 | 19 | 1.6 | 6.4 | 0.00 | 0.97 | 0.00 | 95 | 1015.8 |
| 20260506104053 | 6 | 338 | 1.6 | 11.3 | 0.00 | 0.97 | 0.00 | 95 | 1015.9 |
| 20260506103548 | 6 | 323 | 0.0 | 12.9 | 0.00 | 0.97 | 0.00 | 95 | 1016.0 |
| 20260506103048 | 6 | 309 | 3.2 | 14.5 | 0.00 | 0.97 | 0.00 | 95 | 1016.4 |
| 20260506102550 | 6 | 302 | 4.8 | 14.5 | 0.00 | 0.97 | 0.00 | 95 | 1016.1 |
| 20260506102049 | 6 | 309 | 1.6 | 6.4 | 0.00 | 0.97 | 0.00 | 95 | 1015.6 |
| 20260506101545 | 6 | 291 | 1.6 | 8.0 | 0.00 | 0.97 | 0.00 | 95 | 1015.5 |
| 20260506101044 | 6 | 320 | 3.2 | 8.0 | 0.00 | 0.97 | 0.00 | 95 | 1015.4 |
| 20260506100643 | 6 | 282 | 1.6 | 4.8 | 0.00 | 0.97 | 0.00 | 95 | 1014.8 |
| 20260506100042 | 6 | 348 | 0.0 | 1.6 | 0.00 | 0.97 | 0.00 | 95 | 1014.4 |
| 20260506095542 | 6 | 5 | 0.0 | 3.2 | 0.00 | 0.97 | 0.00 | 95 | 1014.1 |
| 20260506095045 | 6 | 21 | 1.6 | 6.4 | 0.00 | 0.97 | 0.00 | 95 | 1013.9 |
| 20260506094542 | 6 | 309 | 1.6 | 6.4 | 0.00 | 0.97 | 0.00 | 95 | 1013.7 |
| 20260506094041 | 6 | 13 | 1.6 | 6.4 | 0.00 | 0.97 | 0.00 | 95 | 1013.7 |
| 20260506093542 | 6 | 313 | 0.0 | 6.4 | 0.00 | 0.97 | 0.00 | 95 | 1013.8 |
| 20260506093043 | 6 | 20 | 0.0 | 6.4 | 0.00 | 0.97 | 0.00 | 95 | 1013.5 |